Theta_e
295 295 296 296 296 296 296 296 296 296 296 295 294 295 295 295 296 294 293 296 290 285 287 290 291 291 293 295 290 289 288 287 286 285 285 285 283 285 284 286 285 282 279 279 279 278 277 287 279 282 289 293 289 284
294 294 295 295 295 295 296 296 295 295 296 296 296 295 295 295 295 294 286 294 296 286 285 291 291 291 291 295 293 290 291 287 291 286 287 288 285 285 285 281 289 283 286 285 285 283 288 287 292 293 293 293 290 283
294 294 294 295 295 295 295 295 295 295 295 295 296 296 296 296 296 294 286 288 287 282 283 284 284 290 294 296 300 291 292 295 289 294 290 288 285 288 283 284 286 288 292 287 287 289 289 287 290 294 295 291 292 283
294 293 294 294 294 294 295 295 295 295 295 295 295 296 296 296 295 295 285 287 285 282 276 276 288 288 292 293 294 297 296 297 296 295 290 288 286 289 287 288 287 290 290 288 288 290 292 293 294 293 288 285 283 281
294 293 293 293 293 294 294 294 295 295 295 294 295 295 295 295 294 291 289 288 289 282 270 273 281 284 286 287 287 289 291 291 290 288 288 286 289 288 288 288 288 292 290 287 286 292 292 292 295 296 291 286 284 282
294 294 294 293 293 293 293 293 294 294 294 294 294 295 295 295 294 287 281 285 292 289 280 273 277 279 282 284 284 285 285 286 287 287 287 289 293 289 285 285 291 293 295 296 292 296 296 296 295 292 293 290 286 284
294 294 294 294 294 293 293 293 294 294 294 294 294 294 294 295 289 283 280 284 292 289 280 274 274 275 281 282 282 283 285 285 287 285 284 285 286 289 286 282 290 293 295 296 297 296 293 290 293 291 287 290 286 284
293 293 293 293 293 293 293 293 293 293 293 293 293 294 294 294 292 284 288 292 291 284 278 271 270 268 274 274 276 278 277 278 279 280 281 281 284 285 281 287 290 292 293 293 294 296 296 297 288 286 284 283 282 280
292 293 293 293 293 292 292 292 292 292 293 293 293 293 289 286 281 280 291 291 288 283 268 265 262 267 273 274 275 278 281 276 281 277 277 279 277 276 283 286 288 289 290 292 293 292 292 291 290 281 281 281 281 280
291 292 292 293 292 292 292 292 292 292 292 292 288 283 277 276 288 288 278 270 273 274 272 271 275 269 273 273 268 273 277 277 273 278 282 278 276 281 283 284 286 287 290 291 290 290 291 291 291 289 282 284 284 281
291 291 291 291 292 292 292 292 292 292 291 284 280 278 280 288 282 277 271 265 264 264 271 272 273 272 275 270 271 272 266 267 267 272 273 273 274 281 285 285 287 288 289 289 291 291 292 292 292 290 283 282 282 280
291 291 291 291 292 291 291 292 292 288 284 284 283 282 279 272 271 268 266 262 260 262 264 268 274 277 275 279 273 273 269 270 264 268 265 270 276 279 268 268 271 275 282 286 283 286 288 288 290 286 283 281 281 280
290 290 290 290 290 290 291 291 291 291 290 286 282 277 275 272 267 264 257 257 254 259 267 275 273 276 276 279 275 274 270 269 264 264 264 272 268 262 260 262 264 266 270 276 285 287 288 289 287 286 282 280 278 273
290 289 289 290 290 290 290 290 291 289 280 276 272 269 269 265 264 261 260 265 270 266 264 269 272 272 272 272 273 271 274 268 264 258 261 254 258 258 258 259 259 260 263 266 280 279 281 282 282 282 280 275 270 267
289 289 289 288 289 289 289 290 290 283 278 273 273 267 266 262 256 261 261 261 263 264 266 266 266 272 270 271 274 272 269 261 261 258 255 256 258 258 258 257 257 258 260 266 276 278 279 278 275 271 271 270 268 266
289 288 283 288 288 288 288 287 284 277 276 275 273 268 264 265 264 261 257 255 260 262 264 265 264 265 268 271 267 264 267 262 253 250 253 255 256 256 257 256 257 258 260 272 275 274 271 269 266 264 265 266 266 265
287 276 286 287 287 287 288 283 282 277 267 271 269 262 264 263 261 250 250 256 260 259 260 267 267 266 271 270 264 253 249 250 251 251 253 255 255 255 256 256 257 257 261 263 265 264 264 264 264 263 260 260 260 260
279 280 284 285 285 284 275 278 274 269 266 262 261 259 257 256 252 250 251 256 258 260 259 261 260 261 258 253 255 249 250 251 252 253 253 255 255 257 256 256 256 256 257 258 259 260 261 260 258 257 257 257 256 256
276 281 284 285 284 280 273 274 275 268 264 262 265 260 258 255 256 255 253 255 258 257 256 253 249 245 245 249 246 248 249 250 249 252 253 256 258 257 257 256 257 256 256 255 256 256 256 257 257 257 257 257 255 255
281 281 282 282 282 276 273 268 268 268 262 265 263 259 256 255 251 248 252 253 253 251 248 247 245 246 247 249 251 250 251 252 252 251 253 256 258 257 256 256 256 257 256 256 256 257 256 256 256 256 256 255 254 253
273 274 276 276 275 272 267 264 265 265 266 265 261 260 255 254 248 247 248 253 250 248 246 248 249 250 252 252 253 253 253 253 252 253 253 253 255 256 256 256 256 256 255 255 254 254 254 253 254 255 254 253 254 254
265 274 267 268 268 269 264 263 262 265 265 264 262 260 253 249 249 250 253 250 249 249 250 250 251 251 251 252 253 253 253 255 255 255 256 255 253 254 254 255 255 254 254 254 254 253 254 255 255 255 254 253 254 254
268 267 263 259 262 259 255 262 260 259 259 257 257 255 253 252 252 255 250 250 250 253 253 252 252 254 253 254 253 253 253 254 253 252 254 255 254 254 254 254 255 254 254 254 256 255 255 256 255 255 255 255 254 254
264 256 254 252 252 250 255 253 255 254 253 252 255 253 252 252 254 251 248 249 252 253 252 252 253 252 253 253 251 252 252 254 253 253 252 255 254 254 254 253 254 255 255 256 255 255 255 255 256 255 255 254 254 253
252 247 248 244 247 247 248 247 249 250 249 250 250 250 250 252 249 248 247 249 250 251 251 252 252 252 251 251 252 252 254 253 252 251 251 252 255 256 256 256 254 253 255 255 254 255 255 255 255 254 254 254 253 252
244 246 244 241 244 244 246 244 244 245 248 248 246 248 250 250 247 246 247 249 250 250 251 251 251 251 251 252 251 252 253 254 254 251 251 252 251 252 253 252 252 252 252 253 253 252 252 252 251 251 252 252 253 252
243 243 247 246 242 245 244 247 247 246 245 244 245 246 248 246 245 248 251 252 250 252 253 254 253 251 251 251 252 253 254 254 253 253 254 253 252 251 250 249 249 249 250 250 250 249 249 249 249 249 248 246 244 246
246 248 245 244 241 238 237 239 240 243 243 246 245 244 244 244 245 249 251 253 253 254 254 254 254 254 252 251 251 251 252 253 255 254 253 255 254 252 251 251 250 255 252 251 249 249 248 247 246 245 246 244 242 240
247 248 246 243 242 244 244 243 243 246 247 239 239 241 244 248 249 249 251 252 253 253 251 251 251 251 252 252 250 248 248 249 250 249 248 248 248 249 249 248 248 247 247 249 256 252 248 245 244 244 242 243 242 240
241 241 241 240 242 243 246 245 245 246 247 245 246 248 248 249 250 251 251 251 250 249 248 248 246 246 244 244 244 247 244 241 242 243 241 242 243 246 244 244 244 242 243 242 247 247 253 246 248 243 242 242 242 241
239 238 241 241 242 243 243 242 244 245 241 240 240 244 244 244 248 249 248 245 243 241 243 243 241 237 239 240 238 239 243 241 238 239 239 240 241 241 241 244 242 238 237 240 241 241 242 242 239 238 240 240 239 240
239 235 239 241 241 239 237 237 235 236 236 239 239 235 239 240 241 242 243 241 240 242 242 238 238 243 240 239 238 239 244 244 242 243 242 245 244 244 244 243 240 239 239 241 240 240 240 238 238 238 238 238 238 238
235 234 234 237 240 241 238 237 239 239 237 237 238 235 234 239 242 245 245 242 245 244 243 243 243 241 242 242 243 243 244 244 242 249 251 253 253 253 246 241 240 240 242 241 241 240 240 239 239 238 239 238 240 240
Wind_Speed
27 27 27 26 25 25 22 21 22 18 21 16 15 17 15 15 14 7 3 3 2 4 3 6 11 10 7 10 13 4 4 3 7 16 10 10 9 14 14 21 20 19 11 10 11 15 25 7 7 22 37 35 14 8
29 27 26 28 26 25 25 23 21 21 18 18 22 17 16 16 13 10 2 3 4 4 6 3 15 18 19 16 10 4 3 4 11 9 9 7 8 7 18 19 19 20 21 20 17 11 7 12 28 35 35 30 21 6
29 29 27 28 26 26 25 25 25 25 20 19 20 21 20 17 16 12 3 2 1 5 10 10 14 14 16 19 15 12 10 8 5 5 6 7 13 6 12 17 21 16 18 20 21 17 21 21 26 27 27 29 20 8
26 28 29 29 27 27 28 26 25 28 23 21 21 22 21 18 18 13 3 3 2 2 6 9 4 9 2 6 11 15 21 21 21 14 13 10 12 10 13 14 20 20 14 22 22 25 24 26 31 30 17 7 13 9
29 28 27 28 27 25 27 26 26 28 26 22 20 22 20 19 16 9 3 4 6 6 6 7 13 27 18 16 20 18 15 15 13 16 14 10 5 8 5 9 15 17 23 19 21 30 21 33 33 23 18 24 22 18
28 29 31 26 27 27 27 26 27 25 24 23 21 21 20 19 18 3 3 3 4 5 4 4 5 11 17 17 22 22 16 14 14 15 9 13 24 10 10 19 21 14 22 27 25 28 28 28 20 13 23 24 23 23
27 27 28 28 27 27 23 23 26 25 24 22 21 21 19 21 5 4 4 5 7 3 3 5 5 6 4 10 9 11 14 12 12 14 16 18 17 15 20 31 33 28 32 32 32 28 29 20 23 12 10 17 18 21
25 24 24 25 24 22 21 21 23 22 22 22 21 21 21 21 17 7 10 14 10 3 1 4 6 5 3 4 6 4 6 4 5 13 16 17 20 20 22 20 21 26 22 24 30 29 32 30 8 10 6 7 11 15
23 22 22 23 22 20 21 21 20 19 19 19 19 20 10 4 3 6 10 14 4 6 4 2 4 15 4 6 5 4 7 14 9 13 15 13 18 21 30 29 23 17 19 25 25 22 24 22 20 7 9 12 16 18
19 18 19 19 19 19 20 21 20 20 19 19 8 3 4 5 4 3 6 3 3 4 3 9 10 15 2 8 5 4 4 9 7 10 9 13 21 32 35 34 34 37 23 19 23 25 24 22 21 20 24 20 19 18
16 15 15 13 17 19 21 20 21 19 16 2 4 5 2 2 3 2 2 3 2 3 5 7 10 14 3 10 14 5 5 4 10 15 9 12 16 21 19 24 26 30 33 33 30 26 21 20 22 16 13 16 16 19
14 13 11 12 15 18 18 17 18 10 4 8 5 2 2 3 2 4 4 4 3 8 4 3 1 2 4 3 5 4 4 2 8 3 4 9 14 2 15 20 23 22 22 17 6 10 13 12 15 14 14 15 16 18
11 10 10 12 12 12 13 14 15 14 10 2 6 8 6 5 7 8 9 6 2 4 5 4 4 4 3 2 6 6 8 8 2 1 7 12 8 14 17 18 23 23 23 25 23 18 17 17 11 11 12 11 15 16
12 11 13 14 14 15 17 18 17 12 1 4 4 5 5 4 5 7 6 7 8 4 2 1 7 5 5 8 8 10 7 3 4 5 7 7 18 21 20 17 18 23 23 27 23 6 6 7 9 10 12 15 17 16
10 11 13 13 13 9 13 12 9 1 3 4 4 6 6 4 2 4 2 3 4 2 3 4 4 5 6 7 6 4 5 6 3 3 5 12 20 21 22 23 22 22 20 24 7 4 6 10 11 12 11 13 17 17
13 10 4 11 7 15 17 11 1 2 3 4 5 3 1 2 5 3 3 1 6 5 4 0 6 5 8 7 5 6 4 5 2 5 10 13 18 19 20 21 21 20 21 14 3 7 10 12 13 13 15 12 13 16
12 3 8 16 18 19 20 4 3 5 5 4 4 3 2 5 3 2 1 3 7 3 3 3 8 10 7 5 3 6 4 6 10 12 11 16 17 19 19 19 18 18 16 13 9 9 12 12 14 15 17 12 15 15
2 5 16 17 14 3 2 4 4 4 7 3 2 2 5 4 3 3 4 5 5 4 4 3 6 3 4 5 2 2 5 10 10 11 13 16 16 14 13 16 14 13 12 11 12 12 12 12 13 11 15 14 16 15
7 10 14 9 6 2 2 2 1 3 3 4 6 4 5 5 6 4 4 6 2 4 3 4 6 4 4 3 6 10 10 9 12 14 15 16 10 13 13 13 10 10 11 11 12 10 10 13 11 9 9 9 11 9
10 8 10 10 7 2 4 1 2 3 2 2 4 5 5 5 1 3 8 6 4 4 7 5 2 1 5 9 10 11 11 11 12 12 12 10 9 13 12 11 8 8 6 9 10 10 9 12 10 9 9 10 10 10
6 6 8 7 2 4 4 4 3 3 2 5 5 4 4 3 4 4 4 5 5 5 3 2 7 9 10 10 9 8 10 9 9 8 10 10 10 10 9 7 7 6 7 8 9 11 13 10 8 9 10 11 10 10
2 9 3 8 4 4 4 5 3 4 2 3 4 4 4 3 3 4 1 7 4 2 3 7 9 9 9 8 8 8 10 9 7 6 8 8 8 9 9 8 7 9 10 10 9 10 10 9 9 10 11 11 11 10
7 6 5 8 4 8 3 6 5 6 4 3 3 4 4 3 2 1 5 3 1 3 7 7 10 9 7 7 7 8 10 9 6 7 8 6 7 7 7 8 8 8 9 10 8 9 9 12 11 11 10 11 10 10
11 9 8 7 8 4 5 6 5 4 4 5 4 4 4 3 1 4 4 2 4 6 7 11 8 7 6 8 8 9 10 7 6 7 9 6 6 7 6 7 8 8 8 6 7 8 9 9 11 9 9 10 10 9
12 11 7 9 6 7 7 6 7 6 4 5 4 4 3 2 4 4 2 4 6 7 8 9 8 7 6 7 7 8 11 7 7 7 9 8 6 4 6 8 10 10 9 8 9 9 9 8 9 9 9 9 11 10
12 5 6 4 5 6 5 4 6 6 5 4 4 4 2 3 4 3 2 4 4 4 8 8 8 7 7 7 6 8 9 8 6 9 9 9 9 9 10 12 11 11 11 7 6 9 10 8 9 10 10 10 11 9
8 5 3 2 2 2 4 3 3 4 5 6 4 5 3 5 3 1 2 2 3 4 6 6 5 5 5 6 6 5 5 5 6 4 5 8 9 9 8 8 9 5 7 7 8 7 7 7 7 7 7 6 5 4
3 5 5 5 4 2 4 4 4 4 3 3 2 5 3 2 1 2 2 3 5 5 3 3 4 5 5 6 6 7 6 8 3 2 2 5 7 9 10 7 7 12 6 5 4 6 6 5 4 4 6 5 2 2
4 5 1 6 4 4 4 2 2 2 0 3 3 0 1 1 1 2 2 3 3 3 3 4 5 5 3 3 6 6 6 7 7 10 10 6 6 6 9 7 6 6 6 5 6 5 7 5 4 4 4 4 2 2
5 2 4 3 5 4 2 0 3 2 1 2 2 1 0 2 2 1 1 1 2 1 1 1 2 3 3 4 4 5 4 4 5 4 3 3 4 6 6 5 5 4 4 3 4 5 7 6 5 4 4 3 3 2
3 3 4 4 2 2 3 3 3 1 3 2 2 3 2 3 3 2 2 2 1 1 2 3 4 2 2 3 2 3 4 2 1 2 4 4 4 4 4 4 3 2 3 3 3 3 3 3 3 3 4 5 5 4
5 4 2 3 3 4 5 4 2 2 4 4 4 3 4 4 2 4 3 3 3 1 3 3 2 4 4 3 3 4 7 6 4 4 5 4 5 5 4 3 2 2 1 2 2 2 2 2 2 2 3 4 4 4
3 2 2 3 5 6 5 4 5 5 3 2 2 2 3 3 5 5 3 3 4 4 4 5 5 4 5 6 6 5 6 6 8 10 10 11 9 7 3 3 2 2 1 2 2 1 2 2 3 4 5 5 6 6
Wind_Direction
281 280 282 277 271 275 273 277 281 286 281 274 283 281 298 295 293 290 253 289 282 265 272 270 286 306 309 218 228 177 127 199 193 213 224 221 221 211 223 223 216 211 186 212 230 247 253 174 117 209 239 257 257 204
277 276 278 282 278 270 274 274 272 274 270 276 277 267 277 282 291 299 276 200 207 248 277 325 274 272 273 276 277 221 282 149 208 212 208 223 221 204 214 230 217 233 208 215 199 203 207 193 217 224 239 242 239 182
275 274 273 273 275 274 271 275 272 272 271 278 276 276 272 272 279 278 218 224 229 261 272 218 237 262 243 244 247 268 261 239 217 244 261 224 236 171 221 227 233 221 228 226 240 231 232 223 229 235 230 232 235 203
279 274 271 270 270 269 268 270 268 276 271 271 276 284 274 278 277 273 193 206 167 295 284 289 319 255 293 326 276 258 260 264 267 264 253 251 257 198 226 233 219 219 197 221 243 245 245 249 243 237 233 230 208 187
273 275 275 271 267 268 273 268 267 264 273 268 276 278 270 269 274 287 191 200 199 200 242 282 319 289 274 268 273 270 257 254 253 253 249 259 236 233 232 260 241 220 224 218 225 228 224 241 248 245 218 217 210 195
272 265 268 272 266 260 259 264 263 265 265 264 267 272 272 271 270 56 291 322 217 223 262 254 263 260 262 254 247 253 257 255 253 264 257 247 245 253 251 247 240 213 233 238 236 241 253 247 248 226 217 217 211 206
281 271 263 262 265 262 261 267 269 267 265 261 263 264 269 268 247 190 210 191 171 149 242 267 286 267 300 252 259 263 260 248 245 253 248 258 265 271 251 252 248 247 229 234 241 245 251 240 248 227 193 215 199 206
288 284 268 260 258 256 256 264 263 260 261 262 266 267 272 275 278 264 244 265 267 257 240 254 266 337 243 255 250 209 222 227 227 241 250 246 255 257 259 272 258 256 249 236 239 241 245 254 248 203 183 148 171 188
290 283 274 263 250 249 253 259 266 266 264 265 269 274 282 257 215 235 258 255 194 192 207 185 211 278 329 278 271 273 231 260 243 239 240 243 247 242 246 250 256 253 246 246 246 244 248 248 241 188 180 193 192 189
293 292 284 264 244 248 255 261 261 262 261 262 268 211 216 225 218 107 19 33 352 237 225 241 243 251 333 291 289 300 271 279 276 248 251 225 244 243 246 253 261 263 258 256 250 248 248 250 245 225 206 205 201 181
295 292 290 270 256 259 262 262 260 261 263 116 210 212 221 163 88 53 237 139 253 273 224 229 229 255 242 259 268 224 240 259 264 263 277 284 291 277 254 258 265 262 255 253 251 251 255 254 247 227 204 201 192 175
292 289 310 304 278 269 268 268 264 258 186 195 167 100 90 81 121 160 192 315 162 225 263 164 211 222 250 247 235 249 222 237 245 214 140 248 242 61 12 340 327 327 326 303 287 260 257 242 235 207 198 188 174 159
291 290 299 302 304 299 286 276 271 267 271 222 202 184 172 171 185 187 193 264 282 238 233 156 256 222 284 240 273 244 232 231 18 182 228 248 8 347 346 334 324 322 322 303 271 258 266 256 218 193 168 161 150 139
279 288 297 302 295 296 297 287 278 277 266 201 212 226 216 177 227 201 194 193 223 181 296 341 299 288 261 265 220 243 221 128 249 255 248 350 342 327 327 326 321 316 310 304 284 257 219 180 156 153 151 142 134 127
288 292 300 302 311 336 324 318 313 50 183 221 206 226 205 231 250 245 280 26 328 325 17 321 285 239 250 238 237 286 266 254 217 282 325 326 325 324 323 325 319 315 311 301 264 164 129 109 100 93 108 121 117 123
304 314 304 304 306 325 315 313 120 134 248 217 211 163 158 34 302 350 21 40 11 326 295 148 256 252 239 219 202 230 241 239 333 313 306 309 313 314 317 317 313 312 311 298 72 100 95 98 104 95 82 89 105 112
331 219 322 328 313 301 292 275 199 195 211 196 231 40 102 77 85 157 335 355 329 340 244 232 248 235 297 249 109 17 342 313 317 306 302 306 309 312 316 314 318 319 325 339 28 59 87 100 100 94 89 82 84 87
247 307 310 302 299 304 284 187 195 188 210 220 126 145 69 59 76 27 330 341 352 359 337 314 326 290 312 287 305 21 307 308 299 303 302 303 305 314 317 318 323 328 336 0 29 39 53 65 79 85 90 90 88 86
292 297 295 315 322 281 249 230 276 200 195 149 105 85 89 109 95 66 357 358 22 27 32 22 43 12 322 328 323 311 305 300 303 309 303 302 315 331 330 331 335 356 17 28 47 53 59 63 71 77 81 83 89 90
323 323 337 315 288 235 232 340 7 64 102 105 71 74 75 78 320 47 29 20 32 46 39 39 16 284 282 293 294 292 295 298 302 305 308 325 331 342 345 346 350 351 11 36 52 58 68 66 57 67 76 84 93 93
16 335 3 351 76 55 53 347 46 36 356 76 143 82 97 76 37 25 29 4 58 39 358 315 300 298 294 288 284 286 294 297 290 290 312 320 336 343 342 350 3 21 40 43 49 51 53 60 62 65 73 76 81 86
287 10 42 4 48 59 72 21 345 342 18 64 74 69 63 53 34 25 21 38 56 281 298 306 307 306 303 313 320 318 311 313 326 327 344 345 354 351 354 359 15 37 43 46 51 58 59 59 65 71 78 82 81 86
20 28 53 10 61 35 349 347 41 11 41 26 52 57 50 58 64 131 71 48 335 320 324 323 318 323 324 333 339 351 352 353 0 354 351 9 3 359 3 18 24 40 49 45 49 62 66 69 73 78 84 86 87 84
32 45 33 37 18 12 335 27 15 12 32 23 35 68 48 38 68 60 69 350 333 332 342 346 343 348 355 11 15 8 1 358 7 9 2 354 20 23 22 32 32 39 45 54 57 64 66 69 74 74 76 80 81 85
69 357 46 2 356 19 27 15 7 17 50 12 50 41 21 14 66 59 31 333 336 345 345 342 356 1 10 8 15 14 12 12 22 29 9 359 7 24 47 54 48 34 12 44 49 59 60 64 67 71 74 82 90 89
68 341 58 357 354 40 357 34 20 7 2 36 28 328 320 69 70 55 10 327 324 324 343 346 347 345 2 6 357 11 8 1 27 46 26 19 18 27 41 42 33 24 6 11 34 55 58 52 61 67 69 69 81 88
52 340 349 66 117 31 41 32 24 35 37 20 355 333 356 67 70 41 344 23 320 320 323 339 346 4 0 355 348 347 350 360 24 47 38 37 36 33 32 36 28 342 336 14 34 44 71 65 64 68 79 54 50 83
100 42 18 320 43 35 98 43 38 16 344 335 334 26 64 40 130 330 318 334 322 314 329 353 2 22 28 15 4 0 358 345 340 312 321 57 54 37 21 18 15 19 5 17 36 50 58 79 95 85 83 90 72 23
39 350 49 23 27 44 51 79 5 292 36 103 119 151 197 234 256 279 293 312 320 348 21 9 7 349 6 32 39 29 16 12 28 43 38 15 354 359 1 357 3 6 2 4 40 103 109 104 108 109 125 124 161 130
318 19 75 49 58 49 316 116 277 284 149 175 182 147 183 293 256 253 274 340 15 0 318 323 318 7 15 15 349 6 16 27 42 80 67 334 278 302 316 326 335 333 329 6 16 2 24 37 36 37 36 38 36 51
330 11 64 48 101 253 272 292 298 339 28 44 345 111 217 298 301 260 214 203 181 14 28 352 335 350 33 3 42 16 334 292 73 247 228 250 264 273 280 290 282 316 358 31 30 32 26 43 42 32 27 13 2 15
360 51 84 46 308 296 10 33 347 43 335 39 334 0 353 29 300 280 236 112 67 339 240 175 218 277 220 235 233 238 240 275 282 265 285 278 271 266 268 268 237 227 0 31 35 36 46 43 355 355 331 318 309 301
13 25 43 29 359 359 340 18 21 349 21 25 296 219 219 183 235 263 293 200 185 193 224 232 235 248 252 251 241 252 250 246 256 267 282 289 301 297 273 243 205 200 282 312 316 315 325 318 292 288 291 280 287 286